Starlink 4067

operational
NORAD ID: 52668 Int'l Des: 2022-053 Owner: SPXS Country: US Constellation: starlink
LEOCIRCULAR

Starlink 4067について

説明を読み込み中...

リアルタイム位置

3D地球を読み込み中...

次回通過

高度履歴

Altitude vs Time

uPlot chart will show altitude changes over time

軌道要素

1 52668U 22053N 25257.33439449 -.00000127 00000-0 10115-4 0 9992
2 52668 53.2157 225.8097 0001237 82.6276 277.4857 15.08837833184424
Epoch: Sep 14, 2025 • Age: 25 hours

現在のステータス

高度 539.7 km
速度 7.59 km/s
衛星直下点 12.21°N, 91.59°W
打ち上げ日 May 18, 2022
運用期間 3.3 years
タイプ internet

技術仕様

分類 Payload
質量 297.00 kg
乾燥質量 275.00 kg
総質量 297.00 kg
長さ 0.20 m
直径 2.80 m
スパン 9.00 m
形状 Box + pan
製造者 SPXS
バスタイプ Starlink
フェーズステータス In Orbit
所有者/国 SPXS/US

大規模コンステレーション

Loading constellations...